, NV

(GMT )
Eureka Airport

Weather History for K05U - January, 2013

Change the Weather History Date:

Thursday, January 3, 2013

  Actual Average Record
Temperature  
Mean Temperature 4 °F -  
Max Temperature 23 °F - - ()
Min Temperature -14 °F - - ()
Degree Days  
Heating Degree Days 60    
Moisture  
Dew Point -7 °F    
Average Humidity 71    
Maximum Humidity 93    
Minimum Humidity 46    
Precipitation  
Precipitation 0.00 in - - ()
Sea Level Pressure  
Sea Level Pressure 30.31 in    
Wind  
Wind Speed 4 mph (SSW)    
Max Wind Speed 8 mph    
Max Gust Speed -    
Visibility 10 miles    
Events      
Averages and records for this station are not official NWS values.
T = Trace of Precipitation, MM = Missing Value Source: NWS Daily Summary

Daily Weather History Graph

Daily Weather History Graph

Search for Another Location

Airport or City:

Trip Planner

Search our weather history database for the weather conditions in past years. The results will help you decide how hot, cold, wet, or windy it might be!

Date:

Astronomy

Jan. 03, 2013 Rise Set
Actual Time 7:04 AM PST 4:32 PM PST
Civil Twilight 6:34 AM PST 5:02 PM PST
Nautical Twilight 6:01 AM PST 5:36 PM PST
Astronomical Twilight 5:28 AM PST 6:09 PM PST
Moon 11:11 PM PST (1/3) 10:20 AM PST (1/3)
Length of Visible Light 10h 28m
Length of Day
9h 27m
Waning Gibbous, 64% of the Moon is Illuminated
Jan 3
Waning Gibbous
Jan 4
Last Quarter
Jan 11
New
Jan 18
First Quarter
Jan 26
Full

Hourly Weather History & Observations

Time (PST) Temp. Windchill Dew Point Humidity Pressure Visibility Wind Dir Wind Speed Gust Speed Precip Events Conditions
12:00 AM -11.2 °F -26.4 °F -16.6 °F 77% 30.31 in 10.0 mi SW 6.9 mph - N/A   Clear
12:20 AM -11.2 °F -20.6 °F -16.6 °F 77% 30.31 in 10.0 mi SSW 3.5 mph - N/A   Clear
12:40 AM -9.4 °F -18.6 °F -16.6 °F 71% 30.30 in 10.0 mi SW 3.5 mph - N/A   Clear
1:00 AM -13.0 °F -22.7 °F -18.4 °F 77% 30.30 in 10.0 mi SSW 3.5 mph - N/A   Clear
1:20 AM -9.4 °F -20.9 °F -14.8 °F 77% 30.31 in 10.0 mi SSW 4.6 mph - N/A   Clear
1:40 AM -9.4 °F -24.3 °F -13.0 °F 84% 30.30 in 10.0 mi SSW 6.9 mph - N/A   Clear
2:00 AM -9.4 °F -18.6 °F -14.8 °F 77% 30.31 in 10.0 mi SSW 3.5 mph - N/A   Clear
2:20 AM -11.2 °F -24.8 °F -18.4 °F 70% 30.30 in 10.0 mi SW 5.8 mph - N/A   Clear
2:40 AM -9.4 °F -22.7 °F -16.6 °F 71% 30.30 in 10.0 mi SSW 5.8 mph - N/A   Clear
3:00 AM -11.2 °F - -16.6 °F 77% 30.30 in 10.0 mi Calm Calm - N/A   Clear
3:20 AM -7.6 °F -20.6 °F -11.2 °F 84% 30.30 in 10.0 mi SW 5.8 mph - N/A   Clear
3:40 AM -9.4 °F -25.6 °F -14.8 °F 77% 30.29 in 10.0 mi SW 8.1 mph - N/A   Clear
4:00 AM -11.2 °F -23.0 °F -16.6 °F 77% 30.29 in 10.0 mi SW 4.6 mph - N/A   Clear
4:20 AM -11.2 °F -27.8 °F -16.6 °F 77% 30.28 in 10.0 mi SW 8.1 mph - N/A   Clear
4:40 AM -11.2 °F -24.8 °F -16.6 °F 77% 30.28 in 10.0 mi South 5.8 mph - N/A   Clear
5:20 AM -13.0 °F -22.7 °F -20.2 °F 70% 30.28 in 10.0 mi SW 3.5 mph - N/A   Clear
5:40 AM -2.2 °F -10.4 °F -7.6 °F 78% 30.29 in 10.0 mi SW 3.5 mph - N/A   Clear
6:00 AM -13.0 °F - -18.4 °F 77% 30.30 in 10.0 mi Calm Calm - N/A   Clear
6:20 AM -13.0 °F -28.6 °F -20.2 °F 70% 30.30 in 10.0 mi SW 6.9 mph - N/A   Clear
6:40 AM -13.0 °F -25.1 °F -18.4 °F 77% 30.30 in 10.0 mi SW 4.6 mph - N/A   Scattered Clouds
7:00 AM -14.8 °F -29.1 °F -20.2 °F 77% 30.30 in 10.0 mi SW 5.8 mph - N/A   Mostly Cloudy
7:20 AM -13.0 °F -27.0 °F -20.2 °F 70% 30.29 in 10.0 mi SW 5.8 mph - N/A   Scattered Clouds
7:40 AM -11.2 °F -27.8 °F -16.6 °F 77% 30.30 in 10.0 mi SW 8.1 mph - N/A   Clear
8:00 AM -7.6 °F -23.4 °F -13.0 °F 77% 30.30 in 10.0 mi SW 8.1 mph - N/A   Clear
8:20 AM -5.8 °F -18.4 °F -11.2 °F 77% 30.31 in 10.0 mi SSW 5.8 mph - N/A   Clear
8:40 AM -4.0 °F -14.6 °F -9.4 °F 78% 30.32 in 10.0 mi SSW 4.6 mph - N/A   Clear
9:00 AM -0.4 °F - -7.6 °F 72% 30.33 in 10.0 mi Calm Calm - N/A   Clear
9:20 AM -0.4 °F - -4.0 °F 85% 30.34 in 10.0 mi Calm Calm - N/A   Clear
9:40 AM 5.0 °F - -0.4 °F 78% 30.34 in 10.0 mi Calm Calm - N/A   Clear
10:00 AM 6.8 °F - -0.4 °F 72% 30.35 in 10.0 mi Calm Calm - N/A   Clear
10:20 AM 6.8 °F - -0.4 °F 72% 30.35 in 10.0 mi Calm Calm - N/A   Clear
10:40 AM 10.4 °F - 1.4 °F 67% 30.34 in 10.0 mi Calm Calm - N/A   Clear
11:00 AM 12.2 °F - 1.4 °F 62% 30.33 in 10.0 mi Calm Calm - N/A   Clear
11:20 AM 14.0 °F - 1.4 °F 57% 30.32 in 10.0 mi Calm Calm - N/A   Clear
11:40 AM 15.8 °F - 3.2 °F 58% 30.30 in 10.0 mi Calm Calm - N/A   Clear
12:00 PM 17.6 °F 12.3 °F 5.0 °F 58% 30.30 in 10.0 mi East 3.5 mph - N/A   Clear
12:20 PM - - - N/A% 30.29 in 10.0 mi Calm Calm - N/A   Clear
12:40 PM 17.6 °F 10.7 °F 5.0 °F 58% 30.29 in 10.0 mi ENE 4.6 mph - N/A   Clear
1:00 PM 17.6 °F - 5.0 °F 58% 30.29 in 10.0 mi Calm Calm - N/A   Clear
1:20 PM 19.4 °F - 5.0 °F 54% 30.28 in 10.0 mi Calm Calm - N/A   Clear
1:40 PM 21.2 °F - 5.0 °F 50% 30.28 in 10.0 mi Calm Calm - N/A   Clear
2:00 PM 23.0 °F - 6.8 °F 50% 30.28 in 10.0 mi Calm Calm - N/A   Clear
2:20 PM 23.0 °F 18.4 °F 5.0 °F 46% 30.28 in 10.0 mi East 3.5 mph - N/A   Clear
3:00 PM 21.2 °F 16.4 °F 6.8 °F 54% 30.29 in 10.0 mi East 3.5 mph - N/A   Clear
3:20 PM 21.2 °F - 6.8 °F 54% 30.29 in 10.0 mi Calm Calm - N/A   Clear
3:40 PM 19.4 °F 14.3 °F 5.0 °F 54% 30.30 in 10.0 mi NE 3.5 mph - N/A   Clear
4:00 PM 19.4 °F - 5.0 °F 54% 30.30 in 10.0 mi Calm Calm - N/A   Clear
4:20 PM 19.4 °F - 5.0 °F 54% 30.30 in 10.0 mi Calm Calm - N/A   Clear
4:40 PM 15.8 °F - 5.0 °F 62% 30.30 in 10.0 mi Calm Calm - N/A   Clear
5:00 PM 8.6 °F - -0.4 °F 67% 30.30 in 10.0 mi Calm Calm - N/A   Clear
5:20 PM 5.0 °F -4.1 °F -2.2 °F 72% 30.30 in 10.0 mi SSW 4.6 mph - N/A   Clear
5:40 PM 1.4 °F - -5.8 °F 72% 30.30 in 10.0 mi Calm Calm - N/A   Clear
6:00 PM 5.0 °F - -0.4 °F 78% 30.30 in 10.0 mi Calm Calm - N/A   Clear
6:20 PM 6.8 °F - 1.4 °F 79% 30.31 in 10.0 mi Calm Calm - N/A   Clear
6:40 PM 14.0 °F - 8.6 °F 79% 30.31 in 10.0 mi Calm Calm - N/A   Clear
7:00 PM 15.8 °F 7.2 °F 14.0 °F 93% 30.31 in 10.0 mi SSW 5.8 mph - N/A   Clear
7:20 PM 5.0 °F -2.1 °F -0.4 °F 78% 30.31 in 10.0 mi SSW 3.5 mph - N/A   Clear
7:40 PM -7.6 °F -18.8 °F -13.0 °F 77% 30.31 in 10.0 mi SW 4.6 mph - N/A   Clear
8:00 PM -5.8 °F -16.7 °F -11.2 °F 77% 30.30 in 10.0 mi SSW 4.6 mph - N/A   Clear
8:20 PM -5.8 °F -14.5 °F -11.2 °F 77% 30.31 in 10.0 mi SW 3.5 mph - N/A   Clear
8:40 PM -4.0 °F -12.4 °F -9.4 °F 78% 30.31 in 10.0 mi South 3.5 mph - N/A   Clear
9:00 PM -4.0 °F - -11.2 °F 71% 30.30 in 10.0 mi Calm Calm - N/A   Clear
9:20 PM -9.4 °F - -16.6 °F 71% 30.31 in 10.0 mi Calm Calm - N/A   Clear
9:40 PM -9.4 °F - -16.6 °F 71% 30.32 in 10.0 mi Calm Calm - N/A   Clear
10:00 PM -7.6 °F - -11.2 °F 84% 30.33 in 10.0 mi Calm Calm - N/A   Clear
10:20 PM -7.6 °F -18.8 °F -13.0 °F 77% 30.33 in 10.0 mi SSW 4.6 mph - N/A   Clear
10:40 PM -4.0 °F -16.3 °F -9.4 °F 78% 30.33 in 10.0 mi SW 5.8 mph - N/A   Clear
11:00 PM -7.6 °F -20.6 °F -11.2 °F 84% 30.33 in 10.0 mi SW 5.8 mph - N/A   Clear
11:20 PM -7.6 °F -22.1 °F -13.0 °F 77% 30.32 in 10.0 mi SW 6.9 mph - N/A   Clear
11:40 PM -7.6 °F -22.1 °F -11.2 °F 84% 30.32 in 10.0 mi SSW 6.9 mph - N/A   Clear